Driggs, ID

8:02 PM MDT on July 25, 2017 (GMT -0600)
Driggs

Weather History for KDIJ - December, 2012

Change the Weather History Date:

Monday, December 24, 2012

  Actual Average (KJAC) Record (KJAC)
Temperature  
Mean Temperature 18 °F -  
Max Temperature 29 °F 22 °F 40 °F (1964)
Min Temperature 6 °F -2 °F -36 °F (1983)
Degree Days  
Heating Degree Days 46    
Moisture  
Dew Point 21 °F    
Average Humidity 90    
Maximum Humidity 100    
Minimum Humidity 74    
Precipitation  
Precipitation 0.01 in - - ()
Sea Level Pressure  
Sea Level Pressure 29.81 in    
Wind  
Wind Speed 8 mph (South)    
Max Wind Speed 15 mph    
Max Gust Speed -    
Visibility 4 miles    
Events Fog , Snow    
Averages and records for this station are not official NWS values.
T = Trace of Precipitation, MM = Missing Value Source: NWS Daily Summary

Daily Weather History Graph

Daily Weather History Graph

Search for Another Location

Airport or City:

Trip Planner

Search our weather history database for the weather conditions in past years. The results will help you decide how hot, cold, wet, or windy it might be!

Date:

Astronomy

Dec. 24, 2012 Rise Set
Actual Time 7:56 AM MST 4:52 PM MST
Civil Twilight 7:23 AM MST 5:25 PM MST
Nautical Twilight 6:47 AM MST 6:01 PM MST
Astronomical Twilight 6:12 AM MST 6:36 PM MST
Moon 2:23 PM MST (12/24) 4:35 AM MST (12/24)
Length of Visible Light 10h 01m
Length of Day
8h 55m
Waxing Gibbous, 89% of the Moon is Illuminated
Dec 24
Waxing Gibbous
Dec 28
Full
Jan 4
Last Quarter
Jan 11
New
Jan 18
First Quarter

Hourly Weather History & Observations

Time (MST) Temp. Windchill Dew Point Humidity Pressure Visibility Wind Dir Wind Speed Gust Speed Precip Events Conditions
12:56 AM 28.0 °F 18.1 °F 24.1 °F 85% 29.77 in 9.0 mi South 11.5 mph - 0.00 in   Mostly Cloudy
1:35 AM 28.4 °F 19.1 °F 24.8 °F 86% 29.75 in 4.0 mi SSE 10.4 mph - 0.00 in Snow Light Snow
1:45 AM 26.6 °F 17.5 °F 24.8 °F 93% 29.75 in 10.0 mi SSE 9.2 mph - 0.00 in Snow Light Snow
1:56 AM 27.1 °F 17.5 °F 24.1 °F 88% 29.77 in 10.0 mi SSE 10.4 mph - 0.00 in Snow Light Snow
2:56 AM 29.1 °F 19.4 °F 25.2 °F 85% 29.75 in 1.2 mi South 11.5 mph - 0.00 in Snow Light Snow
2:59 AM 28.4 °F 19.1 °F 24.8 °F 86% 29.75 in 1.0 mi South 10.4 mph - 0.00 in Snow Light Snow
3:04 AM 28.4 °F 19.1 °F 24.8 °F 86% 29.75 in 1.5 mi SSE 10.4 mph - 0.00 in Snow Light Snow
3:08 AM 28.4 °F 19.1 °F 24.8 °F 86% 29.74 in 4.0 mi SSE 10.4 mph - 0.00 in Snow Light Snow
3:16 AM 26.6 °F 17.5 °F 24.8 °F 93% 29.74 in 10.0 mi SE 9.2 mph - 0.00 in Snow Light Snow
3:29 AM 28.4 °F 19.7 °F 26.6 °F 93% 29.74 in 9.0 mi SSE 9.2 mph - 0.00 in Snow Light Snow
3:56 AM 28.0 °F 18.6 °F 26.1 °F 92% 29.75 in 1.8 mi South 10.4 mph - 0.00 in Snow Light Snow
4:01 AM 28.4 °F 18.5 °F 26.6 °F 93% 29.73 in 3.0 mi South 11.5 mph - 0.00 in Snow Light Snow
4:18 AM 28.4 °F 19.1 °F 26.6 °F 93% 29.73 in 10.0 mi SSE 10.4 mph - 0.00 in   Overcast
4:56 AM 28.0 °F 18.6 °F 26.1 °F 92% 29.75 in 7.0 mi SSE 10.4 mph - 0.00 in Snow Light Snow
5:16 AM 26.6 °F 18.2 °F 24.8 °F 93% 29.72 in 10.0 mi SE 8.1 mph - 0.00 in   Mostly Cloudy
5:56 AM 28.0 °F 20.0 °F 24.1 °F 85% 29.75 in 6.0 mi South 8.1 mph - 0.00 in   Overcast
6:09 AM 28.4 °F 22.2 °F 24.8 °F 86% 29.72 in 10.0 mi SSE 5.8 mph - 0.00 in   Mostly Cloudy
6:36 AM 28.4 °F 20.4 °F 24.8 °F 86% 29.72 in 2.5 mi South 8.1 mph - 0.00 in Snow Light Snow
6:39 AM 28.4 °F 22.2 °F 24.8 °F 86% 29.72 in 1.2 mi South 5.8 mph - 0.00 in Snow Light Snow
6:42 AM 28.4 °F 21.2 °F 24.8 °F 86% 29.72 in 0.8 mi South 6.9 mph - 0.00 in Snow Light Snow
6:56 AM 27.1 °F 19.7 °F 25.2 °F 92% 29.74 in 1.2 mi SSE 6.9 mph - 0.00 in Snow Light Snow
6:59 AM 26.6 °F 19.1 °F 24.8 °F 93% 29.72 in 2.0 mi SSE 6.9 mph - 0.00 in Snow Light Snow
7:07 AM 26.6 °F 19.1 °F 24.8 °F 93% 29.72 in 7.0 mi SSE 6.9 mph - 0.00 in Snow Light Snow
7:19 AM 26.6 °F 20.0 °F 24.8 °F 93% 29.72 in 2.5 mi SE 5.8 mph - 0.00 in Snow Light Snow
7:35 AM 26.6 °F 21.2 °F 24.8 °F 93% 29.72 in 4.0 mi SE 4.6 mph - 0.00 in Snow Light Snow
7:47 AM 26.6 °F 20.0 °F 24.8 °F 93% 29.71 in 1.8 mi SSE 5.8 mph - 0.00 in Snow Light Snow
7:49 AM 26.6 °F 20.0 °F 24.8 °F 93% 29.71 in 1.0 mi SSE 5.8 mph - 0.00 in Snow Light Snow
7:56 AM 27.1 °F 20.7 °F 26.1 °F 96% 29.72 in 0.5 mi SE 5.8 mph - 0.00 in Fog , Snow Light Snow
8:03 AM 26.6 °F 21.2 °F 26.6 °F 100% 29.71 in 1.0 mi SE 4.6 mph - 0.00 in Snow Light Snow
8:05 AM 26.6 °F 21.2 °F 26.6 °F 100% 29.71 in 1.8 mi SE 4.6 mph - 0.00 in Snow Light Snow
8:12 AM 26.6 °F 22.6 °F 26.6 °F 100% 29.71 in 2.0 mi SE 3.5 mph - 0.00 in Snow Light Snow
8:25 AM 26.6 °F 22.6 °F 26.6 °F 100% 29.71 in 1.2 mi SE 3.5 mph - 0.00 in Snow Light Snow
8:34 AM 26.6 °F 22.6 °F 26.6 °F 100% 29.72 in 1.0 mi SE 3.5 mph - 0.00 in Snow Light Snow
8:37 AM 26.6 °F 22.6 °F 26.6 °F 100% 29.71 in 1.2 mi SE 3.5 mph - 0.00 in Snow Light Snow
8:42 AM 26.6 °F 22.6 °F 26.6 °F 100% 29.72 in 2.0 mi SE 3.5 mph - 0.00 in Snow Light Snow
8:48 AM 26.6 °F 22.6 °F 26.6 °F 100% 29.72 in 3.0 mi SE 3.5 mph - 0.00 in Snow Light Snow
8:56 AM 27.1 °F 23.2 °F 26.1 °F 96% 29.73 in 2.0 mi SE 3.5 mph - 0.00 in Snow Light Snow
9:13 AM 28.4 °F 23.3 °F 26.6 °F 93% 29.72 in 1.2 mi SSE 4.6 mph - 0.00 in Snow Light Snow
9:17 AM 28.4 °F 23.3 °F 26.6 °F 93% 29.72 in 0.8 mi SSE 4.6 mph - 0.00 in Snow Light Snow
9:33 AM 28.4 °F 23.3 °F 26.6 °F 93% 29.73 in 0.5 mi South 4.6 mph - 0.01 in Fog , Snow Light Snow
9:35 AM 28.4 °F 22.2 °F 26.6 °F 93% 29.73 in 0.2 mi South 5.8 mph - 0.01 in Fog , Snow Light Snow
9:47 AM 28.4 °F 23.3 °F 26.6 °F 93% 29.73 in 0.8 mi South 4.6 mph - 0.01 in Snow Light Snow
9:56 AM 28.0 °F 21.7 °F 27.1 °F 96% 29.74 in 1.2 mi South 5.8 mph - 0.01 in Snow Light Snow
10:01 AM 28.4 °F 22.2 °F 26.6 °F 93% 29.74 in 0.8 mi South 5.8 mph - 0.00 in Snow Light Snow
10:07 AM 28.4 °F 22.2 °F 26.6 °F 93% 29.74 in 1.2 mi South 5.8 mph - 0.00 in Snow Light Snow
10:09 AM 28.4 °F 22.2 °F 26.6 °F 93% 29.74 in 2.0 mi South 5.8 mph - 0.00 in Snow Light Snow
10:25 AM 28.4 °F 23.3 °F 26.6 °F 93% 29.75 in 10.0 mi South 4.6 mph - 0.00 in Snow Light Snow
10:56 AM 29.1 °F 20.0 °F 26.1 °F 88% 29.75 in 10.0 mi South 10.4 mph - 0.00 in   Overcast
11:37 AM 28.4 °F 19.7 °F 23.0 °F 80% 29.75 in 10.0 mi SW 9.2 mph - 0.00 in   Overcast
11:56 AM 28.0 °F 18.1 °F 21.0 °F 75% 29.76 in 10.0 mi SSW 11.5 mph - 0.00 in   Overcast
12:03 PM 26.6 °F 17.5 °F 21.2 °F 80% 29.76 in 10.0 mi SSW 9.2 mph - N/A   Overcast
12:14 PM 26.6 °F 15.7 °F 21.2 °F 80% 29.76 in 10.0 mi South 12.7 mph - 0.00 in Snow Light Snow
12:38 PM 24.8 °F 12.4 °F 19.4 °F 80% 29.76 in 10.0 mi WSW 15.0 mph - 0.00 in Snow Light Snow
12:56 PM 25.2 °F 15.1 °F 19.0 °F 78% 29.78 in 10.0 mi WSW 10.4 mph - 0.00 in   Overcast
1:56 PM 25.2 °F 15.1 °F 19.0 °F 78% 29.79 in 10.0 mi South 10.4 mph - 0.00 in   Overcast
2:07 PM 24.8 °F 14.6 °F 19.4 °F 80% 29.78 in 2.5 mi South 10.4 mph - 0.00 in   Overcast
2:28 PM 24.8 °F 14.6 °F 19.4 °F 80% 29.78 in 6.0 mi South 10.4 mph - 0.00 in   Overcast
2:46 PM 24.8 °F 14.0 °F 17.6 °F 74% 29.78 in 10.0 mi SSE 11.5 mph - 0.00 in   Mostly Cloudy
2:56 PM 24.1 °F 13.1 °F 17.1 °F 75% 29.80 in 10.0 mi South 11.5 mph - 0.00 in   Mostly Cloudy
3:39 PM 23.0 °F 11.1 °F 17.6 °F 80% 29.80 in 2.5 mi SSE 12.7 mph - 0.00 in Snow Light Snow
3:44 PM 23.0 °F 12.4 °F 17.6 °F 80% 29.80 in 1.2 mi South 10.4 mph - 0.00 in Snow Light Snow
3:56 PM 23.0 °F 12.4 °F 18.1 °F 82% 29.83 in 1.2 mi South 10.4 mph - 0.00 in Snow Light Snow
4:05 PM 21.2 °F 10.9 °F 19.4 °F 93% 29.81 in 1.5 mi South 9.2 mph - 0.00 in Snow Light Snow
4:14 PM 21.2 °F 11.7 °F 19.4 °F 93% 29.81 in 1.2 mi South 8.1 mph - 0.00 in Snow Light Snow
4:24 PM 21.2 °F 11.7 °F 19.4 °F 93% 29.82 in 2.0 mi South 8.1 mph - 0.00 in Snow Light Snow
4:32 PM 21.2 °F 12.6 °F 19.4 °F 93% 29.82 in 7.0 mi South 6.9 mph - 0.00 in   Mostly Cloudy
4:56 PM 22.1 °F 12.8 °F 19.0 °F 88% 29.86 in 3.0 mi South 8.1 mph - 0.00 in Snow Light Snow
4:59 PM 21.2 °F 11.7 °F 19.4 °F 93% 29.83 in 1.8 mi South 8.1 mph - 0.00 in Snow Light Snow
5:02 PM 21.2 °F 11.7 °F 19.4 °F 93% 29.84 in 1.2 mi South 8.1 mph - 0.00 in Snow Light Snow
5:13 PM 21.2 °F 12.6 °F 19.4 °F 93% 29.84 in 1.5 mi South 6.9 mph - 0.00 in Snow Light Snow
5:26 PM 21.2 °F 11.7 °F 19.4 °F 93% 29.85 in 2.5 mi SSW 8.1 mph - 0.00 in Snow Light Snow
5:48 PM 21.2 °F 12.6 °F 19.4 °F 93% 29.86 in 4.0 mi South 6.9 mph - 0.00 in Snow Light Snow
5:56 PM 22.1 °F 13.7 °F 19.0 °F 88% 29.90 in 5.0 mi South 6.9 mph - 0.00 in Snow Light Snow
6:04 PM 21.2 °F 9.5 °F 19.4 °F 93% 29.87 in 3.0 mi South 11.5 mph - 0.00 in Snow Light Snow
6:12 PM 21.2 °F 10.9 °F 19.4 °F 93% 29.87 in 2.5 mi South 9.2 mph - 0.00 in Snow Light Snow
6:34 PM 21.2 °F 12.6 °F 17.6 °F 86% 29.89 in 1.8 mi South 6.9 mph - 0.00 in Snow Light Snow
6:56 PM 21.0 °F 13.4 °F 18.1 °F 89% 29.94 in 2.0 mi South 5.8 mph - 0.00 in Snow Light Snow
7:03 PM 21.2 °F 14.9 °F 17.6 °F 86% 29.90 in 2.0 mi South 4.6 mph - 0.00 in Snow Light Snow
7:10 PM 21.2 °F 13.6 °F 17.6 °F 86% 29.90 in 1.8 mi South 5.8 mph - 0.00 in Snow Light Snow
7:15 PM 21.2 °F 12.6 °F 17.6 °F 86% 29.90 in 2.5 mi South 6.9 mph - 0.00 in Snow Light Snow
7:43 PM 19.4 °F 12.8 °F 17.6 °F 93% 29.92 in 6.0 mi South 4.6 mph - 0.00 in Snow Light Snow
7:56 PM 20.1 °F 15.2 °F 17.1 °F 88% 29.97 in 6.0 mi SSE 3.5 mph - 0.00 in Snow Light Snow
8:03 PM 19.4 °F - 17.6 °F 93% 29.92 in 2.5 mi Calm Calm - 0.00 in Snow Light Snow
8:18 PM 19.4 °F - 17.6 °F 93% 29.94 in 1.2 mi Calm Calm - 0.00 in Snow Light Snow
8:29 PM 19.4 °F - 17.6 °F 93% 29.94 in 1.8 mi Calm Calm - 0.00 in Snow Light Snow
8:34 PM 19.4 °F - 17.6 °F 93% 29.94 in 2.0 mi Calm Calm - 0.00 in Snow Light Snow
8:44 PM 19.4 °F - 17.6 °F 93% 29.95 in 3.0 mi Calm Calm - 0.00 in Snow Light Snow
8:56 PM 20.1 °F 15.2 °F 17.1 °F 88% 30.00 in 8.0 mi NNW 3.5 mph - 0.00 in Snow Light Snow
9:07 PM 19.4 °F 14.3 °F 17.6 °F 93% 29.96 in 10.0 mi NW 3.5 mph - 0.00 in Snow Light Snow
9:23 PM 17.6 °F 8.2 °F 15.8 °F 93% 29.96 in 10.0 mi NW 6.9 mph - 0.00 in   Overcast
9:47 PM 17.6 °F 9.3 °F 15.8 °F 93% 29.97 in 10.0 mi North 5.8 mph - 0.00 in   Overcast
9:56 PM 17.1 °F 10.0 °F 15.1 °F 92% 30.03 in 10.0 mi North 4.6 mph - 0.00 in   Mostly Cloudy
10:56 PM 16.2 °F - 13.1 °F 88% 30.06 in 10.0 mi Calm Calm - N/A   Overcast
11:21 PM 10.4 °F - 6.8 °F 85% 30.00 in 1.2 mi Calm Calm - N/A   Overcast
11:24 PM 8.6 °F - 6.8 °F 92% 30.00 in 0.5 mi Calm Calm - N/A Fog Light Freezing Fog
11:32 PM 8.6 °F - 3.2 °F 79% 30.00 in 0.2 mi Calm Calm - N/A Fog Light Freezing Fog
11:56 PM 6.1 °F -0.9 °F 3.0 °F 87% 30.12 in 0.2 mi East 3.5 mph - N/A Fog Light Freezing Fog